EW3591 Weather Reports


Display with metric or nautical units.
time (UTC)temp
F
wind
direction
speed
MPH
gust
MPH
rain 1hr
in
rain 24hr
in
rain mn
in
humidity
%
barometer
mb
20260904160228 78 230 1.0 5.0 0.00 0.06 0.00 66 1016.2
20260904160028 78 285 0.0 4.0 0.00 0.06 0.00 66 1016.1
20260904155828 78 266 1.0 4.0 0.00 0.06 0.00 66 1016.2
20260904155627 78 159 1.0 4.0 0.00 0.06 0.00 66 1016.1
20260904155427 78 157 0.0 3.0 0.00 0.06 0.00 66 1016.1
20260904155227 78 240 0.0 3.0 0.00 0.06 0.00 66 1016.1
20260904155026 78 245 0.0 3.0 0.00 0.06 0.00 66 1016.1
20260904154826 78 273 1.0 4.0 0.00 0.06 0.00 67 1016.1
20260904154626 77 240 1.0 4.0 0.00 0.06 0.00 67 1016.1
20260904154425 77 234 1.0 5.0 0.00 0.06 0.00 67 1016.2
20260904154225 77 225 2.0 5.0 0.00 0.06 0.00 66 1016.2
20260904154025 78 196 1.0 5.0 0.00 0.06 0.00 65 1016.3
20260904153824 78 194 1.0 5.0 0.00 0.06 0.00 66 1016.3
20260904153624 78 194 0.0 5.0 0.00 0.06 0.00 65 1016.3
20260904153424 78 124 0.0 5.0 0.00 0.06 0.00 63 1016.3
20260904153224 78 122 0.0 5.0 0.00 0.06 0.00 64 1016.3
20260904153023 78 87 1.0 5.0 0.00 0.06 0.00 63 1016.2
20260904152823 79 68 1.0 5.0 0.00 0.06 0.00 63 1016.2
20260904152623 79 69 0.0 3.0 0.00 0.06 0.00 63 1016.2
20260904152422 79 66 0.0 2.0 0.00 0.06 0.00 64 1016.2
20260904152222 78 66 0.0 2.0 0.00 0.06 0.00 64 1016.1
20260904152022 78 66 0.0 2.0 0.00 0.06 0.00 64 1016.1
20260904151821 78 66 0.0 2.0 0.00 0.06 0.00 64 1016.1
20260904151621 77 66 0.0 2.0 0.00 0.06 0.00 65 1016.0
20260904151421 77 66 1.0 2.0 0.00 0.06 0.00 64 1016.0
20260904151220 78 66 1.0 2.0 0.00 0.06 0.00 65 1016.0
20260904151020 77 71 0.0 2.0 0.00 0.06 0.00 65 1016.0
20260904150820 77 71 0.0 2.0 0.00 0.06 0.00 66 1016.0
20260904150619 77 65 1.0 2.0 0.00 0.06 0.00 66 1015.8
20260904150419 76 51 0.0 2.0 0.00 0.06 0.00 66 1015.8
20260904150219 76 44 0.0 2.0 0.00 0.06 0.00 67 1015.8
20260904150019 76 44 0.0 2.0 0.00 0.06 0.00 66 1015.8
20260904145818 76 44 0.0 2.0 0.00 0.06 0.00 65 1015.8
20260904145618 76 44 0.0 2.0 0.00 0.06 0.00 67 1015.8
20260904145418 76 44 0.0 2.0 0.00 0.06 0.00 67 1015.7
20260904145217 76 44 1.0 2.0 0.00 0.06 0.00 67 1015.7
20260904145017 76 43 1.0 2.0 0.00 0.06 0.00 67 1015.8
20260904144817 76 5 0.0 2.0 0.00 0.06 0.00 68 1015.8
20260904144616 76 355 0.0 2.0 0.00 0.06 0.00 69 1015.7
20260904144416 76 355 0.0 2.0 0.00 0.06 0.00 68 1015.8
20260904144216 75 355 0.0 2.0 0.00 0.06 0.00 68 1015.7
20260904144015 75 354 0.0 2.0 0.00 0.06 0.00 68 1015.7
20260904143815 75 353 0.0 1.0 0.00 0.06 0.00 68 1015.7
20260904143615 75 353 0.0 1.0 0.00 0.06 0.00 70 1015.7
20260904143414 75 0 0.0 1.0 0.00 0.06 0.00 71 1015.6
20260904143214 75 353 0.0 1.0 0.00 0.06 0.00 71 1015.5
20260904143014 74 25 0.0 1.0 0.00 0.06 0.00 72 1015.5
20260904142814 74 34 0.0 4.0 0.00 0.06 0.00 72 1015.5
20260904142613 74 34 0.0 5.0 0.00 0.06 0.00 71 1015.5
20260904142413 74 34 0.0 5.0 0.00 0.06 0.00 71 1015.5
20260904142213 74 34 1.0 5.0 0.00 0.06 0.00 71 1015.5
20260904142012 74 43 2.0 5.0 0.00 0.06 0.00 71 1015.4
20260904141812 74 25 0.0 2.0 0.00 0.06 0.00 72 1015.5
20260904141612 73 25 0.0 2.0 0.00 0.06 0.00 72 1015.4
20260904141411 73 25 0.0 2.0 0.00 0.06 0.00 72 1015.4
20260904141211 73 25 0.0 2.0 0.00 0.06 0.00 73 1015.4
20260904141011 73 24 0.0 2.0 0.00 0.06 0.00 73 1015.4
20260904140810 74 22 0.0 2.0 0.00 0.06 0.00 73 1015.4
20260904140610 73 0 0.0 1.0 0.00 0.06 0.00 72 1015.4
20260904140410 73 0 0.0 1.0 0.00 0.06 0.00 73 1015.5
20260904140209 73 82 0.0 1.0 0.00 0.06 0.00 73 1015.4
20260904140009 73 82 0.0 1.0 0.00 0.06 0.00 72 1015.4
20260904135809 73 82 0.0 1.0 0.00 0.06 0.00 73 1015.5
20260904135608 73 82 0.0 1.0 0.00 0.06 0.00 73 1015.4
20260904135408 73 83 0.0 1.0 0.00 0.06 0.00 73 1015.4
20260904135208 72 83 0.0 1.0 0.00 0.06 0.00 74 1015.4
20260904135008 72 79 0.0 1.0 0.00 0.06 0.00 73 1015.4
20260904134807 72 0 0.0 2.0 0.00 0.06 0.00 72 1015.5
20260904134607 72 46 0.0 2.0 0.00 0.06 0.00 72 1015.5
20260904134407 72 47 0.0 2.0 0.00 0.06 0.00 73 1015.4
20260904134206 72 48 1.0 2.0 0.00 0.06 0.00 72 1015.4
20260904134006 72 48 1.0 2.0 0.00 0.06 0.00 73 1015.3
20260904133806 72 43 0.0 2.0 0.00 0.06 0.00 75 1015.3
20260904133605 72 0 0.0 1.0 0.00 0.06 0.00 76 1015.3
20260904133405 72 0 0.0 1.0 0.00 0.06 0.00 76 1015.3
20260904133205 72 43 0.0 1.0 0.00 0.06 0.00 75 1015.4
20260904133004 72 43 0.0 1.0 0.00 0.06 0.00 75 1015.5
20260904132804 72 43 0.0 1.0 0.00 0.06 0.00 75 1015.5
20260904132604 72 0 0.0 1.0 0.00 0.06 0.00 75 1015.5
20260904132404 72 0 0.0 1.0 0.00 0.06 0.00 75 1015.5
20260904132203 72 0 0.0 1.0 0.00 0.06 0.00 75 1015.5
20260904132003 72 43 0.0 1.0 0.00 0.06 0.00 76 1015.5
20260904131803 72 43 0.0 1.0 0.00 0.06 0.00 76 1015.6
20260904131602 72 0 0.0 1.0 0.00 0.06 0.00 76 1015.8
20260904131402 72 0 0.0 1.0 0.00 0.06 0.00 76 1015.7
20260904131202 72 0 0.0 1.0 0.00 0.06 0.00 76 1015.8
20260904131001 72 43 0.0 1.0 0.00 0.06 0.00 76 1015.9
20260904130801 72 43 0.0 1.0 0.00 0.06 0.00 74 1015.9
20260904130601 72 43 0.0 1.0 0.00 0.06 0.00 75 1015.8
20260904130400 72 0 0.0 1.0 0.00 0.06 0.00 76 1015.8
20260904130200 72 0 0.0 0.0 0.00 0.06 0.00 76 1016.0
20260904130000 72 0 0.0 0.0 0.00 0.06 0.00 77 1016.0
20260904125759 71 0 0.0 0.0 0.00 0.06 0.00 79 1015.8
20260904125559 71 0 0.0 0.0 0.00 0.06 0.00 78 1015.8
20260904125359 71 0 0.0 0.0 0.00 0.06 0.00 79 1015.8
20260904125159 70 0 0.0 0.0 0.00 0.06 0.00 80 1015.8
20260904124958 70 0 0.0 0.0 0.00 0.06 0.00 80 1015.7
20260904124758 70 0 0.0 0.0 0.00 0.06 0.00 81 1015.8
20260904124558 70 0 0.0 1.0 0.00 0.06 0.00 82 1015.9
20260904124357 69 0 0.0 1.0 0.00 0.06 0.00 81 1015.8
20260904124157 69 0 0.0 1.0 0.00 0.06 0.00 81 1015.8
20260904123957 69 43 0.0 1.0 0.00 0.06 0.00 81 1015.8
20260904123756 69 43 0.0 1.0 0.00 0.06 0.00 81 1015.8
20260904123556 69 0 0.0 0.0 0.00 0.06 0.00 81 1015.8
20260904123356 69 0 0.0 0.0 0.00 0.06 0.00 81 1015.7
20260904123155 69 0 0.0 0.0 0.00 0.06 0.00 82 1015.7
20260904122955 68 0 0.0 0.0 0.00 0.06 0.00 83 1015.7
20260904122755 68 0 0.0 0.0 0.00 0.06 0.00 83 1015.7
20260904122554 68 0 0.0 0.0 0.00 0.06 0.00 83 1015.6
20260904122354 68 0 0.0 0.0 0.00 0.06 0.00 83 1015.7
20260904122154 68 0 0.0 0.0 0.00 0.06 0.00 83 1015.5
20260904121954 68 0 0.0 0.0 0.00 0.06 0.00 85 1015.5
20260904121753 67 0 0.0 0.0 0.00 0.06 0.00 85 1015.6
20260904121553 67 0 0.0 0.0 0.00 0.06 0.00 85 1015.7
20260904121353 67 0 0.0 0.0 0.00 0.06 0.00 86 1015.7
20260904121152 67 0 0.0 0.0 0.00 0.06 0.00 87 1015.5
20260904120952 67 0 0.0 0.0 0.00 0.06 0.00 88 1015.5
20260904120752 66 0 0.0 0.0 0.00 0.06 0.00 88 1015.5
20260904120552 66 0 0.0 0.0 0.00 0.06 0.00 89 1015.4
20260904120351 66 0 0.0 0.0 0.00 0.06 0.00 89 1015.4
20260904120151 66 0 0.0 0.0 0.00 0.06 0.00 90 1015.5
20260904115950 66 0 0.0 0.0 0.00 0.06 0.00 90 1015.5
20260904115750 66 0 0.0 0.0 0.00 0.06 0.00 91 1015.7
20260904115550 65 0 0.0 0.0 0.00 0.06 0.00 91 1015.6
20260904115350 65 0 0.0 0.0 0.00 0.06 0.00 91 1015.5
20260904115149 65 0 0.0 0.0 0.00 0.06 0.00 92 1015.6
20260904114949 65 0 0.0 0.0 0.00 0.06 0.00 92 1015.4
20260904114749 65 0 0.0 0.0 0.00 0.06 0.00 92 1015.3
20260904114548 65 0 0.0 0.0 0.00 0.06 0.00 92 1015.3
20260904114348 65 0 0.0 0.0 0.00 0.06 0.00 93 1015.4
20260904114148 64 0 0.0 0.0 0.00 0.06 0.00 93 1015.3
20260904113947 64 0 0.0 0.0 0.00 0.06 0.00 93 1015.3
20260904113747 64 0 0.0 0.0 0.00 0.06 0.00 93 1015.3
20260904113547 64 0 0.0 0.0 0.00 0.06 0.00 93 1015.3
20260904113346 64 0 0.0 0.0 0.00 0.06 0.00 93 1015.3
20260904113146 64 0 0.0 0.0 0.00 0.06 0.00 93 1015.2
20260904112946 64 0 0.0 0.0 0.00 0.06 0.00 93 1015.0
20260904112745 64 0 0.0 0.0 0.00 0.06 0.00 93 1015.1
20260904112545 64 0 0.0 0.0 0.00 0.06 0.00 93 1015.2
20260904112345 64 0 0.0 0.0 0.00 0.06 0.00 93 1015.2
20260904112145 64 0 0.0 0.0 0.00 0.06 0.00 93 1015.1
20260904111944 64 0 0.0 0.0 0.00 0.06 0.00 93 1015.0
20260904111744 64 0 0.0 0.0 0.00 0.06 0.00 93 1015.0
20260904111544 64 0 0.0 0.0 0.00 0.06 0.00 93 1015.0
20260904111343 64 0 0.0 0.0 0.00 0.06 0.00 93 1015.0
20260904111143 64 0 0.0 0.0 0.00 0.06 0.00 93 1014.9
20260904110943 64 0 0.0 0.0 0.00 0.06 0.00 93 1014.9
20260904110742 64 0 0.0 0.0 0.00 0.06 0.00 93 1014.9
20260904110542 64 0 0.0 0.0 0.00 0.06 0.00 93 1014.9
20260904110342 64 0 0.0 0.0 0.00 0.06 0.00 93 1014.9
20260904110141 64 0 0.0 0.0 0.00 0.06 0.00 92 1015.0
20260904105941 64 0 0.0 0.0 0.00 0.06 0.00 93 1014.9
20260904105741 64 0 0.0 0.0 0.00 0.06 0.00 93 1014.9
20260904105541 64 0 0.0 0.0 0.00 0.06 0.00 93 1014.9
20260904105340 64 0 0.0 0.0 0.00 0.06 0.00 93 1014.9
20260904105140 64 0 0.0 0.0 0.00 0.06 0.00 93 1014.9
20260904104940 64 0 0.0 0.0 0.00 0.06 0.00 93 1014.9
20260904104739 64 0 0.0 0.0 0.00 0.06 0.00 92 1014.8
20260904104539 64 0 0.0 0.0 0.00 0.06 0.00 92 1014.8
20260904104339 64 0 0.0 0.0 0.00 0.06 0.00 92 1014.8
20260904104138 65 0 0.0 0.0 0.00 0.06 0.00 92 1014.8
20260904103938 65 0 0.0 0.0 0.00 0.06 0.00 92 1014.9
20260904103738 65 0 0.0 0.0 0.00 0.06 0.00 92 1014.9
20260904103537 65 0 0.0 0.0 0.00 0.06 0.00 92 1014.8
20260904103337 65 0 0.0 0.0 0.00 0.06 0.00 92 1014.8
20260904103137 65 0 0.0 0.0 0.00 0.06 0.00 92 1014.8
20260904102936 65 0 0.0 0.0 0.00 0.06 0.00 92 1014.9
20260904102736 65 0 0.0 0.0 0.00 0.06 0.00 92 1015.0
20260904102536 65 0 0.0 0.0 0.00 0.06 0.00 92 1014.9
20260904102335 65 0 0.0 0.0 0.00 0.06 0.00 92 1014.8
20260904102135 65 0 0.0 0.0 0.00 0.06 0.00 92 1014.8
20260904101935 65 0 0.0 0.0 0.00 0.06 0.00 92 1014.8
20260904101735 65 0 0.0 0.0 0.00 0.06 0.00 92 1014.8
20260904101534 65 0 0.0 0.0 0.00 0.06 0.00 92 1014.9
20260904101334 65 0 0.0 0.0 0.00 0.06 0.00 92 1014.8
20260904101134 65 0 0.0 0.0 0.00 0.06 0.00 92 1014.9
20260904100933 65 0 0.0 0.0 0.00 0.06 0.00 92 1014.9
20260904100733 65 0 0.0 0.0 0.00 0.06 0.00 92 1014.9
20260904100533 65 0 0.0 0.0 0.00 0.06 0.00 92 1014.9
20260904100332 65 0 0.0 0.0 0.00 0.06 0.00 91 1015.0
20260904100132 65 0 0.0 0.0 0.00 0.06 0.00 91 1014.9
20260904095932 65 0 0.0 0.0 0.00 0.06 0.00 91 1015.0
20260904095731 65 0 0.0 0.0 0.00 0.06 0.00 91 1015.1
20260904095531 66 0 0.0 0.0 0.00 0.06 0.00 91 1015.0
20260904095331 66 0 0.0 0.0 0.00 0.06 0.00 91 1015.0
20260904095131 66 0 0.0 0.0 0.00 0.06 0.00 91 1015.0
20260904094930 66 0 0.0 0.0 0.00 0.06 0.00 91 1015.0
20260904094730 66 0 0.0 0.0 0.00 0.06 0.00 91 1014.9
20260904094530 66 0 0.0 0.0 0.00 0.06 0.00 91 1014.9
20260904094329 66 0 0.0 0.0 0.00 0.06 0.00 91 1014.9
20260904094129 66 0 0.0 0.0 0.00 0.06 0.00 91 1014.9
20260904093929 66 0 0.0 0.0 0.00 0.06 0.00 91 1014.9
20260904093728 66 0 0.0 0.0 0.00 0.06 0.00 91 1014.9
20260904093528 66 0 0.0 0.0 0.00 0.06 0.00 91 1014.9
20260904093328 66 0 0.0 0.0 0.00 0.06 0.00 91 1014.9
20260904093127 66 0 0.0 0.0 0.00 0.06 0.00 92 1015.0
20260904092927 66 0 0.0 0.0 0.00 0.06 0.00 92 1015.0
20260904092727 66 0 0.0 0.0 0.00 0.06 0.00 92 1014.9
20260904092526 66 0 0.0 0.0 0.00 0.06 0.00 92 1015.0
20260904092326 66 0 0.0 0.0 0.00 0.06 0.00 92 1014.9
20260904092126 66 0 0.0 0.0 0.00 0.06 0.00 93 1015.0
20260904091926 66 0 0.0 0.0 0.00 0.06 0.00 93 1015.0
20260904091725 66 0 0.0 0.0 0.00 0.06 0.00 93 1015.0
20260904091525 66 0 0.0 0.0 0.00 0.06 0.00 93 1014.9
20260904091325 66 0 0.0 0.0 0.00 0.06 0.00 93 1014.9
20260904091124 66 0 0.0 0.0 0.00 0.06 0.00 93 1014.9
20260904090924 66 0 0.0 0.0 0.00 0.06 0.00 93 1014.8
20260904090724 66 0 0.0 0.0 0.00 0.06 0.00 93 1014.8
20260904090523 66 0 0.0 0.0 0.00 0.06 0.00 93 1014.8
20260904090323 66 0 0.0 0.0 0.00 0.06 0.00 93 1014.8
20260904090123 66 0 0.0 0.0 0.00 0.06 0.00 93 1014.8
20260904085922 66 0 0.0 0.0 0.00 0.06 0.00 93 1014.8
20260904085722 66 0 0.0 0.0 0.00 0.06 0.00 93 1014.8
20260904085522 66 0 0.0 0.0 0.00 0.06 0.00 93 1014.8
20260904085321 66 0 0.0 0.0 0.00 0.06 0.00 93 1014.8
20260904085121 66 0 0.0 0.0 0.00 0.06 0.00 93 1014.8
20260904084921 66 0 0.0 0.0 0.00 0.06 0.00 92 1014.8
20260904084721 66 0 0.0 0.0 0.00 0.06 0.00 92 1014.7
20260904084520 66 0 0.0 0.0 0.00 0.06 0.00 92 1014.6
20260904084320 66 0 0.0 0.0 0.00 0.06 0.00 93 1014.6
20260904084120 66 0 0.0 0.0 0.00 0.06 0.00 92 1014.6
20260904083919 66 0 0.0 0.0 0.00 0.06 0.00 92 1014.6
20260904083719 66 0 0.0 0.0 0.00 0.06 0.00 93 1014.6
20260904083519 66 0 0.0 0.0 0.00 0.06 0.00 93 1014.6
20260904083318 66 0 0.0 0.0 0.00 0.06 0.00 93 1014.7
20260904083118 66 0 0.0 0.0 0.00 0.06 0.00 93 1014.8
20260904082918 66 0 0.0 0.0 0.00 0.06 0.00 93 1014.7
20260904082717 66 0 0.0 0.0 0.00 0.06 0.00 93 1014.6
20260904082517 66 0 0.0 0.0 0.00 0.06 0.00 93 1014.6
20260904082317 66 0 0.0 0.0 0.00 0.06 0.00 93 1014.6
20260904082117 66 0 0.0 0.0 0.00 0.06 0.00 93 1014.6
20260904081916 66 0 0.0 0.0 0.00 0.06 0.00 94 1014.8
20260904081716 66 0 0.0 0.0 0.00 0.06 0.00 94 1014.8
20260904081516 66 0 0.0 1.0 0.00 0.06 0.00 94 1014.8
20260904081315 66 0 0.0 1.0 0.00 0.06 0.00 94 1014.7
20260904081115 66 0 0.0 1.0 0.00 0.06 0.00 95 1014.7
20260904080915 66 0 0.0 1.0 0.00 0.06 0.00 95 1014.8
20260904080714 66 43 0.0 1.0 0.00 0.06 0.00 95 1014.8
20260904080514 66 43 0.0 1.0 0.00 0.06 0.00 96 1014.9
20260904080314 66 0 0.0 0.0 0.00 0.06 0.00 96 1014.9
20260904080113 66 0 0.0 0.0 0.00 0.06 0.00 96 1014.9
20260904075913 66 0 0.0 0.0 0.00 0.06 0.00 96 1014.9
20260904075713 66 0 0.0 0.0 0.00 0.06 0.00 96 1014.9
20260904075512 66 0 0.0 0.0 0.00 0.06 0.00 96 1014.9
20260904075312 66 0 0.0 0.0 0.00 0.06 0.00 96 1014.9
20260904075112 66 0 0.0 0.0 0.00 0.06 0.00 96 1014.9
20260904074911 66 0 0.0 0.0 0.00 0.06 0.00 96 1014.9
20260904074711 66 0 0.0 0.0 0.00 0.06 0.00 96 1014.9
20260904074511 66 0 0.0 0.0 0.00 0.06 0.00 96 1014.9
20260904074310 66 0 0.0 0.0 0.00 0.06 0.00 96 1015.0
20260904074110 66 0 0.0 0.0 0.00 0.06 0.00 96 1014.9
20260904073910 66 0 0.0 0.0 0.00 0.06 0.00 96 1015.0
20260904073710 66 0 0.0 0.0 0.00 0.06 0.00 97 1014.9
20260904073509 66 0 0.0 0.0 0.00 0.06 0.00 97 1014.9
20260904073309 66 0 0.0 0.0 0.00 0.06 0.00 97 1014.9
20260904073109 66 0 0.0 0.0 0.00 0.06 0.00 97 1015.0
20260904072908 66 0 0.0 0.0 0.00 0.06 0.00 97 1014.9
20260904072708 66 0 0.0 0.0 0.00 0.06 0.00 97 1014.8
20260904072508 66 0 0.0 0.0 0.00 0.06 0.00 97 1014.7
20260904072307 66 0 0.0 0.0 0.00 0.06 0.00 97 1014.8
20260904072107 66 0 0.0 0.0 0.00 0.06 0.00 97 1014.8
20260904071907 66 0 0.0 0.0 0.00 0.06 0.00 97 1014.8
20260904071706 66 0 0.0 0.0 0.00 0.06 0.00 97 1014.7
20260904071506 66 0 0.0 0.0 0.00 0.06 0.00 97 1014.7
20260904071306 66 0 0.0 0.0 0.00 0.06 0.00 97 1014.8
20260904071106 66 0 0.0 0.0 0.00 0.06 0.00 97 1014.8
20260904070905 66 0 0.0 0.0 0.00 0.06 0.00 97 1014.8
20260904070705 66 0 0.0 0.0 0.00 0.06 0.00 96 1014.8
20260904070505 66 0 0.0 0.0 0.00 0.06 0.00 96 1014.7
20260904070304 66 0 0.0 0.0 0.00 0.06 0.00 96 1014.7
20260904070104 66 0 0.0 0.0 0.00 0.06 0.00 96 1014.7
20260904065904 66 0 0.0 0.0 0.00 0.06 0.00 96 1014.7
20260904065703 66 0 0.0 0.0 0.00 0.06 0.00 96 1014.6
20260904065503 66 0 0.0 0.0 0.00 0.06 0.00 96 1014.6
20260904065306 66 0 0.0 0.0 0.00 0.06 0.00 96 1014.5
20260904065102 66 0 0.0 0.0 0.00 0.06 0.00 96 1014.4
20260904064902 66 0 0.0 0.0 0.00 0.06 0.00 95 1014.4
20260904064702 66 0 0.0 0.0 0.00 0.06 0.00 95 1014.3
20260904064501 66 0 0.0 0.0 0.00 0.06 0.00 95 1014.3
20260904064301 66 0 0.0 0.0 0.00 0.06 0.00 95 1014.3
20260904064101 66 0 0.0 0.0 0.00 0.06 0.00 95 1014.3
20260904063901 66 0 0.0 0.0 0.00 0.06 0.00 95 1014.3
20260904063700 66 0 0.0 0.0 0.00 0.06 0.00 94 1014.3
20260904063500 66 0 0.0 0.0 0.00 0.06 0.00 94 1014.5
20260904063300 66 0 0.0 0.0 0.00 0.06 0.00 94 1014.4
20260904063100 66 0 0.0 0.0 0.00 0.06 0.00 94 1014.4
20260904062859 66 0 0.0 0.0 0.00 0.06 0.00 94 1014.4
20260904062659 67 0 0.0 0.0 0.00 0.06 0.00 94 1014.5
20260904062458 67 0 0.0 0.0 0.00 0.06 0.00 94 1014.6
20260904062258 67 0 0.0 0.0 0.00 0.06 0.00 94 1014.6
20260904062058 67 0 0.0 0.0 0.00 0.06 0.00 94 1014.7
20260904061857 67 0 0.0 0.0 0.00 0.06 0.00 94 1014.7
20260904061657 67 0 0.0 0.0 0.00 0.06 0.00 93 1014.6
20260904061457 67 0 0.0 0.0 0.00 0.06 0.00 93 1014.5
20260904061256 67 0 0.0 0.0 0.00 0.06 0.00 93 1014.6
20260904061056 67 0 0.0 0.0 0.00 0.06 0.00 93 1014.6
20260904060856 68 0 0.0 0.0 0.00 0.06 0.00 93 1014.7
20260904060655 68 0 0.0 0.0 0.00 0.06 0.00 92 1014.6
20260904060455 68 0 0.0 0.0 0.00 0.06 0.00 92 1014.7
20260904060255 68 0 0.0 0.0 0.00 0.06 0.00 92 1014.7
20260904060055 68 0 0.0 0.0 0.00 0.06 0.00 92 1014.8
20260904055854 68 0 0.0 0.0 0.00 0.06 0.00 91 1014.8
20260904055654 68 0 0.0 0.0 0.00 0.06 0.00 91 1014.9
20260904055454 68 0 0.0 0.0 0.00 0.06 0.00 91 1014.9
20260904055253 68 0 0.0 0.0 0.00 0.06 0.00 91 1014.8
20260904055053 68 0 0.0 0.0 0.00 0.06 0.00 90 1014.7
20260904054853 68 0 0.0 0.0 0.00 0.06 0.00 90 1014.7
20260904054652 68 0 0.0 0.0 0.00 0.06 0.00 91 1014.7
20260904054452 68 0 0.0 0.0 0.00 0.06 0.00 91 1014.7
20260904054252 69 0 0.0 0.0 0.00 0.06 0.00 91 1014.7
20260904054051 69 0 0.0 0.0 0.00 0.06 0.00 91 1014.7
20260904053851 69 0 0.0 0.0 0.00 0.06 0.00 91 1014.7
20260904053651 69 0 0.0 0.0 0.00 0.06 0.00 91 1014.8
20260904053450 69 0 0.0 0.0 0.00 0.06 0.00 91 1014.7
20260904053250 69 0 0.0 0.0 0.00 0.06 0.00 92 1014.8
20260904053050 69 0 0.0 0.0 0.00 0.06 0.00 92 1014.9
20260904052850 69 0 0.0 0.0 0.00 0.06 0.00 92 1014.9
20260904052649 69 0 0.0 0.0 0.00 0.06 0.00 92 1014.9
20260904052449 69 0 0.0 0.0 0.00 0.06 0.00 92 1014.9
20260904052249 69 0 0.0 0.0 0.00 0.06 0.00 92 1014.9
20260904052048 69 0 0.0 0.0 0.00 0.06 0.00 92 1014.9
20260904051848 69 0 0.0 0.0 0.00 0.06 0.00 92 1014.9
20260904051648 69 0 0.0 0.0 0.00 0.06 0.00 92 1014.9
20260904051447 69 0 0.0 0.0 0.00 0.06 0.00 92 1014.8
20260904051247 69 0 0.0 0.0 0.00 0.06 0.00 92 1014.8
20260904051047 69 0 0.0 0.0 0.00 0.06 0.00 91 1014.8
20260904050846 69 0 0.0 0.0 0.00 0.06 0.00 91 1014.8
20260904050646 69 0 0.0 0.0 0.00 0.06 0.00 91 1014.9
20260904050446 69 0 0.0 0.0 0.00 0.06 0.00 91 1014.8
20260904050245 69 0 0.0 0.0 0.00 0.06 0.00 90 1014.9
20260904050045 69 0 0.0 0.0 0.00 0.06 0.00 90 1014.8
20260904045845 70 0 0.0 0.0 0.00 0.06 0.00 90 1014.8
20260904045645 70 0 0.0 0.0 0.00 0.06 0.00 90 1014.8
20260904045444 70 0 0.0 0.0 0.00 0.06 0.00 90 1014.8
20260904045244 70 0 0.0 1.0 0.00 0.06 0.00 91 1014.8
20260904045044 70 0 0.0 1.0 0.00 0.06 0.00 91 1014.8
20260904044843 70 0 0.0 1.0 0.00 0.06 0.00 91 1014.8
20260904044643 70 43 0.0 1.0 0.00 0.06 0.00 92 1014.8
20260904044443 70 0 0.0 1.0 0.00 0.06 0.00 92 1014.9
20260904044242 70 0 0.0 0.0 0.00 0.06 0.00 92 1014.9
20260904044042 70 0 0.0 0.0 0.00 0.06 0.00 92 1014.9
20260904043842 70 0 0.0 0.0 0.00 0.06 0.00 92 1014.8
20260904043641 70 0 0.0 0.0 0.00 0.06 0.00 92 1014.7
20260904043441 70 0 0.0 0.0 0.00 0.06 0.00 92 1014.6
20260904043241 70 0 0.0 0.0 0.00 0.06 0.00 92 1014.6
20260904043040 70 0 0.0 0.0 0.00 0.06 0.00 93 1014.8
20260904042840 70 0 0.0 0.0 0.00 0.06 0.00 93 1014.8
20260904042640 70 0 0.0 0.0 0.00 0.06 0.00 93 1014.9
20260904042440 70 0 0.0 0.0 0.00 0.06 0.00 94 1014.8
20260904042239 70 0 0.0 0.0 0.00 0.06 0.00 94 1014.8
20260904042039 70 0 0.0 0.0 0.00 0.06 0.00 94 1014.9
20260904041839 70 0 0.0 0.0 0.00 0.06 0.00 95 1014.9
20260904041638 70 0 0.0 0.0 0.00 0.06 0.00 94 1014.9
20260904041438 70 0 0.0 0.0 0.00 0.06 0.00 94 1015.0
20260904041238 70 0 0.0 0.0 0.00 0.06 0.00 94 1014.9
20260904041037 70 0 0.0 0.0 0.00 0.06 0.00 94 1015.0
20260904040837 70 0 0.0 0.0 0.00 0.06 0.00 94 1015.0
20260904040637 70 0 0.0 0.0 0.00 0.06 0.00 94 1015.0
20260904040436 70 0 0.0 0.0 0.00 0.06 0.00 94 1015.0
20260904040236 70 0 0.0 0.0 0.00 0.06 0.00 94 1014.9
20260904040036 70 0 0.0 0.0 0.00 0.06 0.00 94 1014.9
20260904035836 70 0 0.0 0.0 0.00 0.06 0.06 94 1014.8
20260904035635 70 0 0.0 0.0 0.00 0.06 0.06 94 1014.8
20260904035435 70 0 0.0 0.0 0.00 0.06 0.06 95 1014.7
20260904035235 70 0 0.0 0.0 0.00 0.06 0.06 95 1014.7
20260904035034 70 0 0.0 0.0 0.00 0.06 0.06 95 1014.7
20260904034834 70 0 0.0 0.0 0.00 0.06 0.06 95 1014.7
20260904034634 70 0 0.0 0.0 0.00 0.06 0.06 94 1014.7
20260904034433 69 0 0.0 0.0 0.00 0.06 0.06 94 1014.7
20260904034233 70 0 0.0 0.0 0.00 0.06 0.06 94 1014.7
20260904034033 69 0 0.0 0.0 0.00 0.06 0.06 94 1014.7
20260904033832 70 0 0.0 0.0 0.00 0.06 0.06 94 1014.6
20260904033632 70 0 0.0 0.0 0.00 0.06 0.06 94 1014.6
20260904033432 70 0 0.0 0.0 0.00 0.06 0.06 94 1014.5
20260904033231 70 0 0.0 0.0 0.00 0.06 0.06 94 1014.6
20260904033031 70 0 0.0 0.0 0.00 0.06 0.06 94 1014.5
20260904032831 70 0 0.0 0.0 0.00 0.06 0.06 94 1014.6
20260904032631 70 0 0.0 0.0 0.00 0.06 0.06 94 1014.5
20260904032430 70 0 0.0 0.0 0.00 0.06 0.06 94 1014.5
20260904032230 70 0 0.0 0.0 0.00 0.06 0.06 94 1014.5
20260904032030 70 0 0.0 0.0 0.00 0.06 0.06 94 1014.5
20260904031829 70 0 0.0 0.0 0.00 0.06 0.06 94 1014.5
20260904031629 70 0 0.0 0.0 0.00 0.06 0.06 94 1014.5
20260904031429 70 0 0.0 0.0 0.00 0.06 0.06 94 1014.4
20260904031228 70 0 0.0 0.0 0.00 0.06 0.06 94 1014.4
20260904031028 70 0 0.0 0.0 0.00 0.06 0.06 94 1014.4
20260904030828 70 0 0.0 0.0 0.00 0.06 0.06 94 1014.4
20260904030627 70 0 0.0 0.0 0.00 0.06 0.06 94 1014.3
20260904030427 70 0 0.0 0.0 0.00 0.06 0.06 94 1014.3
20260904030227 70 0 0.0 0.0 0.00 0.06 0.06 93 1014.3
20260904030026 70 0 0.0 0.0 0.00 0.06 0.06 93 1014.4
20260904025826 70 0 0.0 0.0 0.00 0.06 0.06 93 1014.3
20260904025626 70 0 0.0 0.0 0.00 0.06 0.06 93 1014.3
20260904025426 70 0 0.0 0.0 0.00 0.06 0.06 93 1014.3
20260904025225 70 0 0.0 0.0 0.00 0.06 0.06 92 1014.2
20260904025025 69 0 0.0 0.0 0.00 0.06 0.06 92 1014.2
20260904024825 69 0 0.0 0.0 0.00 0.06 0.06 92 1014.1
20260904024624 70 0 0.0 0.0 0.00 0.06 0.06 92 1014.1
20260904024424 70 0 0.0 0.0 0.00 0.06 0.06 92 1014.1
20260904024224 70 0 0.0 0.0 0.00 0.06 0.06 92 1014.2
20260904024023 70 0 0.0 0.0 0.00 0.06 0.06 92 1014.1
20260904023823 70 0 0.0 0.0 0.00 0.06 0.06 92 1014.1
20260904023623 70 0 0.0 0.0 0.00 0.06 0.06 92 1014.1
20260904023422 69 0 0.0 0.0 0.00 0.06 0.06 92 1014.2
20260904023222 69 0 0.0 0.0 0.00 0.06 0.06 92 1014.1
20260904023022 69 0 0.0 0.0 0.00 0.06 0.06 92 1014.0
20260904022822 69 0 0.0 0.0 0.00 0.06 0.06 92 1014.0
20260904022621 69 0 0.0 0.0 0.00 0.06 0.06 92 1014.0
20260904022421 69 0 0.0 0.0 0.00 0.06 0.06 92 1014.0
20260904022221 69 0 0.0 0.0 0.00 0.06 0.06 92 1014.1
20260904022020 69 0 0.0 0.0 0.00 0.06 0.06 92 1014.1
20260904021820 69 0 0.0 0.0 0.00 0.06 0.06 93 1014.1
20260904021620 69 0 0.0 0.0 0.00 0.06 0.06 93 1014.2
20260904021419 69 0 0.0 0.0 0.00 0.06 0.06 93 1014.2
20260904021219 69 0 0.0 0.0 0.00 0.06 0.06 92 1014.2
20260904021019 69 0 0.0 0.0 0.00 0.06 0.06 92 1014.3
20260904020818 69 0 0.0 0.0 0.00 0.06 0.06 92 1014.2
20260904020618 69 0 0.0 0.0 0.00 0.06 0.06 92 1014.2
20260904020418 69 0 0.0 0.0 0.00 0.06 0.06 92 1014.2
20260904020218 70 0 0.0 0.0 0.00 0.06 0.06 92 1014.3
20260904020017 70 0 0.0 0.0 0.00 0.06 0.06 92 1014.3
20260904015817 70 0 0.0 0.0 0.00 0.06 0.06 92 1014.3
20260904015617 70 0 0.0 0.0 0.00 0.06 0.06 92 1014.3
20260904015416 70 0 0.0 0.0 0.00 0.06 0.06 92 1014.3
20260904015216 70 0 0.0 0.0 0.00 0.06 0.06 92 1014.2
20260904015016 70 0 0.0 0.0 0.00 0.06 0.06 91 1014.2
20260904014815 70 0 0.0 0.0 0.00 0.06 0.06 91 1014.2
20260904014615 70 0 0.0 0.0 0.00 0.06 0.06 91 1014.1
20260904014415 70 0 0.0 0.0 0.00 0.06 0.06 91 1014.1
20260904014214 70 0 0.0 0.0 0.00 0.06 0.06 91 1014.0
20260904014014 70 0 0.0 0.0 0.00 0.06 0.06 91 1014.0
20260904013814 71 0 0.0 0.0 0.00 0.06 0.06 91 1013.9
20260904013613 71 0 0.0 0.0 0.00 0.06 0.06 91 1014.0
20260904013413 71 0 0.0 0.0 0.00 0.06 0.06 91 1014.0
20260904013213 71 0 0.0 0.0 0.00 0.06 0.06 91 1013.9
20260904013012 71 0 0.0 0.0 0.00 0.06 0.06 91 1013.9
20260904012812 71 0 0.0 0.0 0.00 0.06 0.06 90 1013.9
20260904012612 71 0 0.0 0.0 0.00 0.06 0.06 90 1013.9
20260904012412 71 0 0.0 0.0 0.00 0.06 0.06 90 1013.9
20260904012211 72 0 0.0 0.0 0.00 0.06 0.06 90 1013.9
20260904012011 72 0 0.0 0.0 0.00 0.06 0.06 90 1013.7
20260904011811 72 0 0.0 0.0 0.00 0.06 0.06 89 1013.7
20260904011610 72 0 0.0 0.0 0.00 0.06 0.06 89 1013.7
20260904011410 72 0 0.0 0.0 0.00 0.06 0.06 89 1013.6
20260904011210 72 0 0.0 0.0 0.00 0.06 0.06 89 1013.6
20260904011009 72 0 0.0 0.0 0.00 0.06 0.06 89 1013.5
20260904010809 72 0 0.0 0.0 0.00 0.06 0.06 89 1013.5
20260904010609 72 0 0.0 0.0 0.00 0.06 0.06 89 1013.5
20260904010408 73 0 0.0 0.0 0.00 0.06 0.06 89 1013.5
20260904010208 73 0 0.0 0.0 0.00 0.06 0.06 89 1013.5
20260904010008 73 0 0.0 0.0 0.00 0.06 0.06 89 1013.6
20260904005808 73 0 0.0 1.0 0.00 0.12 0.06 89 1013.5
20260904005607 73 0 0.0 1.0 0.00 0.12 0.06 89 1013.5
20260904005407 73 0 0.0 2.0 0.00 0.12 0.06 89 1013.4
20260904005207 74 0 0.0 2.0 0.00 0.12 0.06 89 1013.5
20260904005006 74 43 0.0 2.0 0.00 0.12 0.06 89 1013.5
20260904004806 74 43 0.0 2.0 0.00 0.12 0.06 89 1013.4
20260904004606 74 44 1.0 2.0 0.00 0.12 0.06 89 1013.3
20260904004405 74 51 0.0 2.0 0.00 0.12 0.06 89 1013.3
20260904004205 74 56 0.0 2.0 0.00 0.12 0.06 90 1013.2
20260904004005 74 40 1.0 4.0 0.00 0.12 0.06 90 1013.1
20260904003804 74 32 0.0 4.0 0.00 0.12 0.06 91 1013.1
20260904003604 74 33 0.0 4.0 0.00 0.12 0.06 92 1013.0
20260904003404 74 33 0.0 4.0 0.00 0.12 0.06 92 1013.0
20260904003203 73 54 1.0 4.0 0.00 0.12 0.06 93 1012.9
20260904003003 73 77 0.0 4.0 0.00 0.12 0.06 94 1012.9
20260904002803 73 0 0.0 0.0 0.00 0.12 0.06 94 1012.9
20260904002602 74 0 0.0 0.0 0.00 0.12 0.06 94 1013.0
20260904002402 74 0 0.0 0.0 0.00 0.12 0.06 94 1012.9
20260904002202 74 0 0.0 0.0 0.00 0.12 0.06 94 1012.8
20260904002002 74 0 0.0 0.0 0.00 0.12 0.06 94 1012.7
20260904001801 74 0 0.0 0.0 0.00 0.12 0.06 94 1012.6
20260904001601 74 0 0.0 0.0 0.00 0.12 0.06 94 1012.6
20260904001401 74 0 0.0 0.0 0.00 0.12 0.06 94 1012.6
20260904001200 74 0 0.0 0.0 0.00 0.12 0.06 94 1012.6
20260904001000 74 0 0.0 0.0 0.00 0.12 0.06 94 1012.7
20260904000800 75 0 0.0 0.0 0.00 0.12 0.06 94 1012.7
20260904000559 75 0 0.0 0.0 0.00 0.12 0.06 94 1012.7
20260904000359 75 0 0.0 0.0 0.00 0.12 0.06 93 1012.7
20260904000159 75 0 0.0 0.0 0.00 0.12 0.06 93 1012.7
20260903235958 75 0 0.0 0.0 0.00 0.12 0.06 93 1012.8
20260903235758 75 0 0.0 0.0 0.00 0.12 0.06 93 1012.9
20260903235558 75 0 0.0 1.0 0.00 0.12 0.06 93 1012.9
20260903235358 75 0 0.0 1.0 0.00 0.12 0.06 92 1013.1
20260903235157 75 0 0.0 1.0 0.00 0.12 0.06 93 1013.1
20260903234957 75 352 0.0 1.0 0.00 0.12 0.06 93 1013.1
20260903234757 75 352 0.0 1.0 0.01 0.12 0.06 93 1013.2
20260903234556 75 352 0.0 1.0 0.06 0.12 0.06 94 1013.2
20260903234356 75 352 0.0 1.0 0.06 0.12 0.06 94 1013.2
20260903234156 75 352 0.0 1.0 0.06 0.12 0.06 94 1013.2
20260903233955 75 0 0.0 1.0 0.06 0.12 0.06 94 1013.2
20260903233755 75 0 0.0 1.0 0.06 0.12 0.06 94 1013.2
20260903233555 75 352 0.0 1.0 0.06 0.12 0.06 94 1013.2
20260903233354 75 352 0.0 2.0 0.06 0.12 0.06 94 1013.0
20260903233154 75 352 0.0 2.0 0.06 0.12 0.06 93 1012.9
20260903232954 75 352 0.0 2.0 0.06 0.12 0.06 94 1012.8
20260903232753 75 352 0.0 2.0 0.06 0.12 0.06 94 1012.9
20260903232553 75 352 0.0 2.0 0.06 0.12 0.06 94 1012.9
20260903232353 75 352 0.0 2.0 0.06 0.12 0.06 95 1012.9
20260903232153 75 352 0.0 1.0 0.06 0.12 0.06 95 1012.8
20260903231952 76 352 0.0 1.0 0.06 0.12 0.06 96 1012.7
20260903231752 76 0 0.0 1.0 0.06 0.12 0.06 95 1012.7
20260903231552 76 0 0.0 1.0 0.06 0.12 0.06 96 1012.7
20260903231351 76 0 0.0 1.0 0.06 0.12 0.06 95 1012.7
20260903231151 76 352 0.0 2.0 0.06 0.12 0.06 95 1012.8
20260903230951 76 352 0.0 2.0 0.06 0.12 0.06 94 1012.8
20260903230750 76 352 0.0 2.0 0.06 0.12 0.06 94 1012.8
20260903230550 76 352 0.0 2.0 0.06 0.12 0.06 94 1012.8
20260903230350 76 138 0.0 2.0 0.06 0.12 0.06 94 1012.9
20260903230149 76 138 0.0 1.0 0.06 0.12 0.06 93 1013.1
20260903225949 76 138 0.0 1.0 0.06 0.36 0.06 92 1013.0
20260903225749 76 138 0.0 4.0 0.06 0.36 0.06 92 1013.0
20260903225549 77 138 0.0 4.0 0.06 0.36 0.06 91 1012.9
20260903225348 77 138 0.0 4.0 0.06 0.36 0.06 90 1012.9
20260903225148 78 143 1.0 4.0 0.06 0.36 0.06 89 1013.0
20260903224948 78 120 1.0 4.0 0.06 0.36 0.06 87 1013.1
20260903224747 79 11 1.0 3.0 0.04 0.34 0.04 85 1013.2
20260903224547 79 344 0.0 3.0 0.00 0.30 0.00 84 1013.2
20260903224347 80 285 1.0 3.0 0.00 0.30 0.00 83 1013.2
20260903224146 80 167 0.0 3.0 0.00 0.30 0.00 84 1013.1
20260903223946 80 144 0.0 2.0 0.00 0.30 0.00 83 1013.1
20260903223746 80 144 0.0 2.0 0.00 0.30 0.00 83 1013.1
20260903223545 80 144 0.0 2.0 0.00 0.30 0.00 82 1013.0
20260903223345 80 144 0.0 2.0 0.00 0.30 0.00 82 1013.0
20260903223145 80 143 0.0 2.0 0.00 0.30 0.00 82 1012.9
20260903222944 80 130 0.0 2.0 0.00 0.30 0.00 82 1012.9
20260903222744 80 0 0.0 1.0 0.00 0.30 0.00 81 1012.9
20260903222544 80 0 0.0 1.0 0.00 0.30 0.00 81 1012.9
20260903222344 80 46 0.0 1.0 0.00 0.30 0.00 81 1012.9
20260903222143 80 46 0.0 4.0 0.00 0.30 0.00 80 1012.9
20260903221943 80 46 0.0 4.0 0.00 0.30 0.00 80 1012.8
20260903221743 80 46 0.0 4.0 0.00 0.30 0.00 80 1012.8
20260903221542 80 44 1.0 4.0 0.00 0.30 0.00 80 1012.8
20260903221342 80 138 1.0 4.0 0.00 0.30 0.00 80 1012.8
20260903221142 80 172 0.0 4.0 0.00 0.30 0.00 81 1012.9
20260903220941 80 106 0.0 4.0 0.00 0.30 0.00 80 1012.9
20260903220741 81 93 0.0 4.0 0.00 0.30 0.00 80 1013.0
20260903220541 81 93 0.0 4.0 0.00 0.30 0.00 80 1013.0
20260903220340 81 169 1.0 4.0 0.00 0.30 0.00 80 1013.0
20260903220140 81 338 0.0 2.0 0.00 0.30 0.00 80 1013.0
20260903215940 81 3 0.0 2.0 0.00 0.30 0.00 79 1013.0
20260903215739 81 28 1.0 2.0 0.00 0.30 0.00 80 1012.9
20260903215539 81 324 1.0 2.0 0.00 0.30 0.00 79 1012.9
20260903215339 81 297 0.0 2.0 0.00 0.30 0.00 80 1012.8
20260903215139 82 297 0.0 2.0 0.00 0.30 0.00 80 1012.8
20260903214938 81 297 0.0 2.0 0.00 0.30 0.00 80 1012.8
20260903214738 82 294 0.0 2.0 0.00 0.30 0.00 80 1012.7
20260903214538 82 134 0.0 2.0 0.00 0.30 0.00 79 1012.7
20260903214337 82 112 0.0 2.0 0.00 0.30 0.00 79 1012.6
20260903214137 82 72 1.0 2.0 0.00 0.30 0.00 79 1012.6
20260903213937 82 24 0.0 3.0 0.00 0.30 0.00 79 1012.6
20260903213736 82 331 0.0 3.0 0.00 0.30 0.00 79 1012.6
20260903213536 82 263 0.0 3.0 0.00 0.30 0.00 79 1012.6
20260903213336 82 260 0.0 3.0 0.00 0.30 0.00 79 1012.7
20260903213135 82 162 1.0 3.0 0.00 0.30 0.00 79 1012.7
20260903212935 82 131 0.0 6.0 0.00 0.30 0.00 78 1012.8
20260903212735 82 131 0.0 6.0 0.00 0.30 0.00 78 1012.8
20260903212534 82 131 0.0 6.0 0.00 0.30 0.00 78 1012.7
20260903212334 82 131 1.0 6.0 0.00 0.30 0.00 78 1012.8
20260903212134 82 71 1.0 6.0 0.00 0.30 0.00 78 1012.8
20260903211934 82 72 0.0 4.0 0.00 0.30 0.00 78 1012.7
20260903211733 82 65 1.0 4.0 0.00 0.30 0.00 77 1012.7
20260903211533 82 44 1.0 4.0 0.00 0.30 0.00 77 1012.7
20260903211333 82 52 0.0 4.0 0.00 0.30 0.00 77 1012.5
20260903211132 82 41 1.0 4.0 0.00 0.30 0.00 76 1012.4
20260903210932 82 257 1.0 4.0 0.00 0.30 0.00 77 1012.3
20260903210732 83 352 1.0 4.0 0.00 0.30 0.00 76 1012.4
20260903210531 83 7 1.0 4.0 0.00 0.30 0.00 76 1012.5
20260903210331 83 54 1.0 4.0 0.00 0.30 0.00 76 1012.4
20260903210131 83 210 0.0 2.0 0.00 0.30 0.00 76 1012.6
20260903205930 83 40 0.0 2.0 0.00 0.30 0.00 76 1012.6
20260903205730 83 24 0.0 2.0 0.00 0.30 0.00 75 1012.6
20260903205530 83 43 0.0 2.0 0.00 0.30 0.00 76 1012.5
20260903205330 83 84 0.0 2.0 0.00 0.30 0.00 76 1012.4
20260903205129 83 84 0.0 2.0 0.00 0.30 0.00 76 1012.4
20260903204929 83 83 0.0 3.0 0.00 0.30 0.00 76 1012.4
20260903204729 83 82 0.0 4.0 0.00 0.30 0.00 76 1012.3
20260903204528 83 76 0.0 4.0 0.00 0.30 0.00 76 1012.3
20260903204328 83 36 0.0 4.0 0.00 0.30 0.00 76 1012.3
20260903204128 83 25 1.0 4.0 0.00 0.30 0.00 76 1012.3
20260903203927 84 38 1.0 4.0 0.00 0.30 0.00 75 1012.5
20260903203727 84 96 1.0 3.0 0.00 0.30 0.00 75 1012.6
20260903203527 84 109 0.0 3.0 0.00 0.30 0.00 76 1012.6
20260903203326 84 106 0.0 2.0 0.00 0.30 0.00 76 1012.7
20260903203126 84 110 1.0 2.0 0.00 0.30 0.00 76 1012.7
20260903202926 84 274 1.0 2.0 0.00 0.30 0.00 76 1012.7
20260903202725 84 271 1.0 2.0 0.00 0.30 0.00 75 1012.7
20260903202525 84 269 0.0 3.0 0.00 0.30 0.00 75 1012.9
20260903202325 84 266 1.0 3.0 0.00 0.30 0.00 76 1012.8
20260903202125 84 132 1.0 3.0 0.00 0.30 0.00 76 1012.7
20260903201924 84 84 1.0 3.0 0.00 0.30 0.00 75 1012.7
20260903201724 84 27 1.0 3.0 0.00 0.30 0.00 75 1012.7
20260903201524 84 21 1.0 3.0 0.00 0.30 0.00 75 1012.7
20260903201323 84 320 1.0 3.0 0.00 0.30 0.00 75 1012.7
20260903201123 84 325 1.0 3.0 0.00 0.30 0.00 75 1012.7
20260903200923 84 70 1.0 4.0 0.00 0.30 0.00 75 1012.7
20260903200722 84 151 1.0 4.0 0.00 0.30 0.00 76 1012.7
20260903200522 84 188 1.0 4.0 0.00 0.30 0.00 76 1012.7
20260903200322 84 126 1.0 4.0 0.00 0.30 0.00 75 1012.8
20260903200121 84 153 1.0 4.0 0.00 0.30 0.00 75 1012.9
20260903195921 84 151 1.0 4.0 0.00 0.30 0.00 75 1012.9
20260903195721 84 165 1.0 4.0 0.00 0.30 0.00 75 1012.8
20260903195520 84 182 1.0 6.0 0.00 0.30 0.00 75 1012.8
20260903195320 84 243 1.0 6.0 0.00 0.30 0.00 75 1012.8
20260903195120 84 221 1.0 6.0 0.00 0.30 0.00 75 1012.9
20260903194920 84 45 2.0 6.0 0.00 0.30 0.00 75 1013.0
20260903194719 84 360 2.0 6.0 0.00 0.30 0.00 75 1013.0
20260903194519 84 225 1.0 5.0 0.00 0.30 0.00 75 1013.0
20260903194319 84 153 0.0 5.0 0.00 0.30 0.00 74 1013.0
20260903194118 84 101 1.0 5.0 0.00 0.30 0.00 74 1013.1
20260903193918 84 3 2.0 5.0 0.00 0.30 0.00 74 1013.2
20260903193718 85 32 1.0 4.0 0.00 0.30 0.00 74 1013.3
20260903193517 84 112 1.0 4.0 0.00 0.30 0.00 74 1013.3
20260903193317 84 15 1.0 7.0 0.00 0.30 0.00 75 1013.3
20260903193117 84 283 1.0 7.0 0.00 0.30 0.00 75 1013.2
20260903192916 84 127 1.0 7.0 0.00 0.30 0.00 74 1013.3
20260903192716 84 129 2.0 7.0 0.00 0.30 0.00 75 1013.3
20260903192516 84 226 2.0 7.0 0.00 0.30 0.00 75 1013.3
20260903192315 84 246 1.0 6.0 0.00 0.30 0.00 75 1013.4
20260903192115 84 263 1.0 6.0 0.00 0.30 0.00 75 1013.4
20260903191915 84 248 2.0 6.0 0.00 0.30 0.00 75 1013.3
20260903191715 84 234 1.0 6.0 0.00 0.30 0.00 75 1013.2
20260903191514 84 252 1.0 6.0 0.00 0.30 0.00 75 1013.3
20260903191314 84 240 2.0 6.0 0.00 0.30 0.00 75 1013.2
20260903191114 84 246 2.0 6.0 0.00 0.30 0.00 75 1013.3
20260903190913 84 290 1.0 4.0 0.00 0.30 0.00 75 1013.2
20260903190713 84 236 2.0 9.0 0.00 0.30 0.00 75 1013.2
20260903190513 85 166 2.0 9.0 0.00 0.30 0.00 74 1013.1
20260903190312 85 215 2.0 9.0 0.00 0.30 0.00 75 1013.1
20260903190112 85 233 2.0 9.0 0.00 0.30 0.00 74 1013.2
20260903185912 85 209 2.0 9.0 0.00 0.30 0.00 74 1013.2
20260903185711 85 172 2.0 6.0 0.00 0.30 0.00 75 1013.2
20260903185511 85 213 2.0 6.0 0.00 0.30 0.00 75 1013.2
20260903185311 85 241 1.0 5.0 0.00 0.30 0.00 75 1013.3
20260903185110 85 227 2.0 5.0 0.00 0.30 0.00 75 1013.3
20260903184910 85 224 2.0 4.0 0.00 0.30 0.00 75 1013.3
20260903184710 85 249 1.0 5.0 0.00 0.30 0.00 75 1013.4
20260903184509 85 247 2.0 5.0 0.00 0.30 0.00 75 1013.4
20260903184309 85 127 1.0 5.0 0.00 0.30 0.00 75 1013.4
20260903184109 84 141 2.0 5.0 0.00 0.30 0.00 75 1013.4
20260903183909 84 139 2.0 5.0 0.00 0.30 0.00 75 1013.4
20260903183709 84 137 0.0 4.0 0.00 0.30 0.00 76 1013.4
20260903183508 84 204 1.0 4.0 0.00 0.30 0.00 76 1013.4
20260903183308 84 231 2.0 5.0 0.00 0.30 0.00 76 1013.4
20260903183107 84 245 2.0 5.0 0.00 0.30 0.00 76 1013.4
20260903182907 84 178 2.0 5.0 0.00 0.30 0.00 76 1013.4
20260903182707 84 194 2.0 5.0 0.00 0.30 0.00 76 1013.5
20260903182506 84 153 1.0 5.0 0.00 0.30 0.00 75 1013.5
20260903182307 84 331 1.0 5.0 0.00 0.30 0.00 75 1013.5
20260903182106 85 290 1.0 5.0 0.00 0.30 0.00 74 1013.5
20260903181905 85 152 1.0 5.0 0.00 0.30 0.00 75 1013.5
20260903181705 85 221 2.0 5.0 0.00 0.30 0.00 75 1013.4
20260903181505 85 232 2.0 5.0 0.00 0.30 0.00 74 1013.4
20260903181305 85 133 1.0 11.0 0.00 0.30 0.00 75 1013.4
20260903181104 85 126 2.0 11.0 0.00 0.30 0.00 74 1013.4
20260903180904 85 105 2.0 11.0 0.00 0.30 0.00 74 1013.4
20260903180704 85 194 3.0 11.0 0.00 0.30 0.00 73 1013.4
20260903180503 85 194 3.0 11.0 0.00 0.30 0.00 73 1013.5
20260903180303 85 190 4.0 9.0 0.00 0.30 0.00 73 1013.5
20260903175902 85 322 2.0 6.0 0.00 0.30 0.00 73 1013.5
20260903175702 85 283 2.0 6.0 0.00 0.30 0.00 73 1013.5
20260903175502 85 296 1.0 6.0 0.00 0.30 0.00 74 1013.5
20260903175301 85 52 2.0 6.0 0.00 0.30 0.00 74 1013.4
20260903175101 85 68 1.0 6.0 0.00 0.30 0.00 75 1013.5
20260903174901 85 190 2.0 6.0 0.00 0.30 0.00 75 1013.6
20260903174700 85 234 1.0 5.0 0.00 0.30 0.00 75 1013.5
20260903174500 85 233 1.0 5.0 0.00 0.30 0.00 76 1013.5
20260903174300 85 233 1.0 6.0 0.00 0.30 0.00 74 1013.5
20260903174059 85 65 2.0 6.0 0.00 0.30 0.00 73 1013.6
20260903173859 85 140 2.0 6.0 0.00 0.30 0.00 74 1013.6
20260903173659 85 176 2.0 6.0 0.00 0.30 0.00 75 1013.5
20260903173459 85 203 3.0 6.0 0.00 0.30 0.00 74 1013.5
20260903173258 85 273 2.0 5.0 0.00 0.30 0.00 74 1013.5
20260903173058 85 317 1.0 5.0 0.00 0.30 0.00 74 1013.4
20260903172858 85 224 0.0 5.0 0.00 0.30 0.00 75 1013.4
20260903172657 85 220 1.0 5.0 0.00 0.30 0.00 75 1013.6
20260903172457 85 179 2.0 5.0 0.00 0.30 0.00 74 1013.6
20260903172257 85 218 2.0 6.0 0.00 0.30 0.00 74 1013.6
20260903172056 85 226 2.0 6.0 0.00 0.30 0.00 74 1013.5
20260903171856 85 213 2.0 6.0 0.00 0.30 0.00 74 1013.5
20260903171656 85 202 2.0 6.0 0.00 0.30 0.00 74 1013.6
20260903171455 85 171 2.0 6.0 0.00 0.30 0.00 74 1013.6
20260903171255 85 220 2.0 4.0 0.00 0.30 0.00 73 1013.6
20260903171055 85 239 2.0 4.0 0.00 0.30 0.00 74 1013.6
20260903170855 85 154 1.0 4.0 0.00 0.30 0.00 74 1013.7
20260903170654 85 182 1.0 4.0 0.00 0.30 0.00 74 1013.7
20260903170454 85 198 1.0 4.0 0.00 0.30 0.00 75 1013.7
20260903170254 84 165 1.0 4.0 0.00 0.30 0.00 75 1013.8
20260903170053 84 124 1.0 6.0 0.00 0.30 0.00 75 1013.8
20260903165853 85 114 2.0 6.0 0.00 0.30 0.00 74 1013.9
20260903165653 85 222 2.0 6.0 0.00 0.30 0.00 74 1013.9
20260903165452 85 194 3.0 6.0 0.00 0.30 0.00 75 1013.9
20260903165252 85 207 2.0 6.0 0.00 0.30 0.00 75 1013.8
20260903165052 85 195 1.0 5.0 0.00 0.30 0.00 76 1013.8
20260903164851 85 240 2.0 5.0 0.00 0.30 0.00 76 1013.8
20260903164651 85 241 1.0 6.0 0.00 0.30 0.00 77 1013.8
20260903164451 85 133 1.0 6.0 0.00 0.30 0.00 76 1013.8
20260903164250 84 216 2.0 6.0 0.00 0.30 0.00 76 1013.9
20260903164050 84 247 2.0 6.0 0.00 0.30 0.00 76 1013.9
20260903163850 84 236 1.0 6.0 0.00 0.30 0.00 77 1013.9
20260903163650 84 229 2.0 5.0 0.00 0.30 0.00 78 1014.0
20260903163449 84 213 2.0 5.0 0.00 0.30 0.00 78 1013.9
20260903163249 84 205 2.0 5.0 0.00 0.30 0.00 78 1013.9
20260903163049 84 221 2.0 5.0 0.00 0.30 0.00 78 1013.9
20260903162848 84 213 2.0 5.0 0.00 0.30 0.00 78 1013.9
20260903162648 84 231 1.0 5.0 0.00 0.30 0.00 78 1013.8
20260903162448 84 219 2.0 5.0 0.00 0.30 0.00 78 1013.7
20260903162247 84 237 2.0 5.0 0.00 0.30 0.00 77 1013.7
20260903162047 84 188 1.0 5.0 0.00 0.30 0.00 77 1013.8
20260903161847 84 177 2.0 5.0 0.00 0.30 0.00 77 1013.9
20260903161646 84 194 2.0 5.0 0.00 0.30 0.00 78 1013.7
20260903161446 84 222 2.0 5.0 0.00 0.30 0.00 78 1013.7
20260903161246 84 245 1.0 6.0 0.00 0.30 0.00 79 1013.7
20260903161045 83 245 1.0 6.0 0.00 0.30 0.00 79 1013.8
20260903160845 83 227 1.0 6.0 0.00 0.30 0.00 79 1013.9
20260903160645 83 231 2.0 6.0 0.00 0.30 0.00 79 1013.9
20260903160445 83 245 2.0 6.0 0.00 0.30 0.00 80 1013.9
20260903160244 82 250 1.0 5.0 0.00 0.30 0.00 80 1013.9